Date,TemperatureHighF,TemperatureAvgF,TemperatureLowF,DewpointHighF,DewpointAvgF,DewpointLowF,HumidityHigh,HumidityAvg,HumidityLow,PressureMaxIn,PressureMinIn,WindSpeedMaxMPH,WindSpeedAvgMPH,GustSpeedMaxMPH,PrecipitationSumIn
2013-1-1,26,13,1,-100,-100,-100,0,0,100,44.89,40.00,3,-41,12,0.01
2013-1-2,31,13,3,-100,-100,-100,0,0,100,44.89,40.00,1,-48,5,0.01
2013-1-3,22,7,-5,-100,-100,-100,0,0,100,44.89,40.00,2,1,9,0.00
2013-1-4,32,17,1,-100,-100,-100,0,0,100,44.89,40.00,3,-199,10,0.02
2013-1-5,37,31,19,-100,-100,-100,0,0,100,44.89,40.00,3,-88,14,0.01
2013-1-6,34,28,19,-100,-100,-100,0,0,100,44.89,40.00,6,-113,19,0.00
2013-1-7,29,22,14,-100,-100,-100,0,0,100,44.89,40.00,5,-86,18,0.00
2013-1-8,40,30,13,-100,-100,-100,0,0,100,44.89,40.00,3,-40,14,0.01
2013-1-9,42,30,20,-100,-100,-100,0,0,100,44.89,40.00,2,-42,10,0.00
2013-1-10,34,26,16,-100,-100,-100,0,0,100,44.89,40.00,8,-17,29,0.01
2013-1-11,14,6,-3,-100,-100,-100,0,0,100,44.89,40.00,5,-347,28,0.01
2013-1-12,10,1,-10,-100,-100,-100,0,0,100,0.00,40.00,2,-94,10,0.00
2013-1-13,13,5,-1,-100,-100,-100,0,0,100,44.89,40.00,4,-98,13,0.01
2013-1-14,4,-2,-7,-100,-100,-100,0,0,100,0.00,40.00,4,-58,13,0.00
2013-1-15,26,14,-10,-100,-100,-100,0,0,100,44.89,40.00,5,-44,15,0.02
2013-1-16,39,26,16,-100,-100,-100,0,0,100,44.89,40.00,2,-92,10,0.01
2013-1-17,36,22,14,-100,-100,-100,0,0,100,0.00,40.00,1,-86,5,0.00
2013-1-18,41,25,14,-100,-100,-100,0,0,100,44.89,40.00,2,-129,5,0.00
2013-1-19,39,24,16,-100,-100,-100,0,0,100,44.89,40.00,2,-174,5,0.00
2013-1-20,40,23,11,-100,-100,-100,0,0,100,44.89,40.00,2,-43,6,0.00
2013-1-21,40,23,11,-100,-100,-100,0,0,100,44.89,40.00,2,-41,5,0.00
2013-1-22,47,30,18,-100,-100,-100,0,0,100,44.89,40.00,2,-45,5,0.00
2013-1-23,49,34,20,-100,-100,-100,0,0,100,44.89,40.00,4,-84,12,0.01
2013-1-24,40,38,36,-100,-100,-100,0,0,100,0.00,40.00,6,-39,19,0.01
2013-1-25,41,37,35,-100,-100,-100,0,0,100,0.00,40.00,5,-89,16,0.01
2013-1-26,37,34,32,-100,-100,-100,0,0,100,0.00,40.00,5,-276,16,0.09
2013-1-27,33,30,25,-100,-100,-100,0,0,100,0.00,40.00,5,-158,18,0.04
2013-1-28,26,17,11,-100,-100,-100,0,0,100,0.00,40.00,6,-92,24,0.02
2013-1-29,16,12,5,-100,-100,-100,0,0,100,0.00,40.00,6,-84,25,0.01
2013-1-30,35,22,9,-100,-100,-100,0,0,100,44.89,40.00,4,-174,14,0.01
2013-1-31,39,29,21,-100,-100,-100,0,0,100,0.00,40.00,2,-59,8,0.00
2013-2-1,43,27,18,-100,-100,-100,0,0,100,0.00,40.00,3,2,9,0.00
2013-2-2,44,30,21,-100,-100,-100,0,0,100,0.00,40.00,2,-92,6,0.00
2013-2-3,37,31,23,-100,-100,-100,0,0,100,44.89,40.00,2,-50,10,0.01
2013-2-4,42,27,15,-100,-100,-100,0,0,100,0.00,40.00,3,-50,8,0.00
2013-2-5,43,27,17,-100,-100,-100,0,0,100,44.89,40.00,3,-129,6,0.00
2013-2-6,37,31,25,-100,-100,-100,0,0,100,0.00,40.00,3,1,15,0.00
2013-2-7,38,26,12,-100,-100,-100,0,0,100,44.89,40.00,3,-231,11,0.00
2013-2-8,28,23,16,-100,-100,-100,0,0,100,0.00,40.00,7,-182,25,0.01
2013-2-9,17,15,12,-100,-100,-100,0,0,100,0.00,40.00,6,-145,20,0.05
2013-2-10,17,14,9,-100,-100,-100,0,0,100,0.00,40.00,6,-235,19,0.02
2013-2-11,22,9,-5,-100,-100,-100,0,0,100,44.89,40.00,2,-293,7,0.01
2013-2-12,30,12,-4,-100,-100,-100,0,0,100,44.89,40.00,2,-181,10,0.01
2013-2-13,37,23,13,-100,-100,-100,0,0,100,0.00,40.00,1,-310,8,0.01
2013-2-14,34,24,12,-100,-100,-100,0,0,100,44.89,40.00,3,-80,13,0.00
2013-2-15,38,22,9,-100,-100,-100,0,0,100,0.00,40.00,3,-380,14,0.00
2013-2-16,45,28,14,-100,-100,-100,0,0,100,0.00,40.00,2,-50,6,0.00
2013-2-17,40,32,26,-100,-100,-100,0,0,100,0.00,40.00,6,-230,20,0.01
2013-2-18,38,27,16,-100,-100,-100,0,0,100,0.00,40.00,3,-317,13,0.00
2013-2-19,33,26,20,-100,-100,-100,0,0,100,44.89,40.00,6,-104,22,0.00
2013-2-20,23,18,17,-100,-100,-100,0,0,100,0.00,40.00,8,-209,25,0.02
2013-2-21,23,17,4,-100,-100,-100,0,0,100,44.89,40.00,6,-186,14,0.01
2013-2-22,30,17,-1,-100,-100,-100,0,0,100,0.00,40.00,3,-61,15,0.01
2013-2-23,36,25,13,-100,-100,-100,0,0,100,0.00,40.00,4,-172,11,0.02
2013-2-25,29,28,28,-100,-100,-100,0,0,100,0.00,40.00,3,3,14,0.00
2013-2-26,29,22,15,-100,-100,-100,0,0,100,0.00,40.00,7,-287,25,0.00
2013-2-27,30,14,-5,-100,-100,-100,0,0,100,0.00,40.00,3,-174,15,0.00
2013-2-28,39,23,6,-100,-100,-100,0,0,100,44.89,40.00,3,1,13,0.01
2013-3-1,44,34,23,-100,-100,-100,0,0,100,0.00,40.00,3,-89,16,0.02
2013-3-2,53,37,20,-100,-100,-100,0,0,100,44.89,40.00,5,-83,13,0.01
2013-3-3,43,38,32,-100,-100,-100,0,0,100,0.00,40.00,5,-127,18,0.01
2013-3-4,43,33,24,-100,-100,-100,0,0,100,44.89,40.00,7,3,19,0.00
2013-3-5,45,29,15,-100,-100,-100,0,0,100,44.89,40.00,5,-156,14,0.01
2013-3-6,43,35,31,-100,-100,-100,0,0,100,0.00,40.00,7,-46,25,0.01
2013-3-7,41,34,30,-100,-100,-100,0,0,100,44.89,40.00,6,-275,21,0.00
2013-3-8,31,25,15,-100,-100,-100,0,0,100,0.00,40.00,7,-98,24,0.05
2013-3-9,31,22,16,-100,-100,-100,0,0,100,44.89,40.00,7,-37,20,0.02
2013-3-10,36,27,17,-100,-100,-100,0,0,100,44.89,40.00,5,-197,18,0.01
2013-3-11,48,34,16,-100,-100,-100,0,0,100,0.00,40.00,3,-152,9,0.01
2013-3-12,47,33,21,-100,-100,-100,0,0,100,0.00,40.00,2,-73,8,0.00
2013-3-13,52,36,24,-100,-100,-100,0,0,100,44.89,40.00,2,-258,8,0.00
2013-3-14,57,40,25,-100,-100,-100,0,0,100,44.89,40.00,2,-78,7,0.00
2013-3-15,56,44,31,-100,-100,-100,0,0,100,0.00,40.00,5,-39,14,0.00
2013-3-16,51,42,35,-100,-100,-100,0,0,100,0.00,40.00,4,2,14,0.00
2013-3-17,47,40,35,-100,-100,-100,0,0,100,0.00,40.00,4,-215,18,0.00
2013-3-18,47,40,34,-100,-100,-100,0,0,100,0.00,40.00,5,4,19,0.00
2013-3-19,43,37,27,-100,-100,-100,0,0,100,44.89,40.00,3,-58,16,0.00
2013-3-20,44,38,30,-100,-100,-100,0,0,100,44.89,40.00,5,-37,17,0.01
2013-3-21,48,40,33,-100,-100,-100,0,0,100,44.89,40.00,5,-209,18,0.00
2013-3-22,44,36,27,-100,-100,-100,0,0,100,0.00,40.00,6,-43,25,0.00
2013-3-23,35,29,23,-100,-100,-100,0,0,100,44.89,40.00,6,-197,26,0.00
2013-3-24,40,30,22,-100,-100,-100,0,0,100,44.89,40.00,4,-319,16,0.00
2013-3-25,46,35,22,-100,-100,-100,0,0,100,44.89,40.00,3,-37,14,0.00
2013-3-26,45,38,33,-100,-100,-100,0,0,100,0.00,40.00,4,-39,15,0.01
2013-3-27,47,39,35,-100,-100,-100,0,0,100,44.89,40.00,5,-264,16,0.00
2013-3-28,48,40,34,-100,-100,-100,0,0,100,44.89,40.00,6,-237,17,0.00
2013-3-29,49,40,29,-100,-100,-100,0,0,100,0.00,40.00,2,-230,9,0.00
2013-3-30,49,39,30,-100,-100,-100,0,0,100,0.00,40.00,3,-184,10,0.00
2013-3-31,51,40,29,-100,-100,-100,0,0,100,0.00,40.00,3,-295,13,0.00
2013-4-1,46,39,31,-100,-100,-100,0,0,100,0.00,40.00,6,-33,21,0.00
2013-4-2,40,35,30,-100,-100,-100,0,0,100,0.00,40.00,5,-45,18,0.00
2013-4-3,49,36,29,-100,-100,-100,0,0,100,44.89,40.00,3,-114,11,0.00
2013-4-4,55,40,27,-100,-100,-100,0,0,100,0.00,40.00,2,-142,11,0.00
2013-4-5,50,43,38,-100,-100,-100,0,0,100,0.00,40.00,6,-40,21,0.01
2013-4-6,55,42,30,-100,-100,-100,0,0,100,44.89,40.00,4,-105,15,0.00
2013-4-7,52,42,34,-100,-100,-100,0,0,100,44.89,40.00,7,-77,18,0.00
2013-4-8,37,31,25,-100,-100,-100,0,0,100,0.00,40.00,8,-218,35,0.02
2013-4-9,33,25,21,-100,-100,-100,0,0,100,44.89,40.00,5,-283,16,0.02
2013-4-10,35,26,18,-100,-100,-100,0,0,100,0.00,40.00,4,-53,16,0.01
2013-4-11,49,39,33,-100,-100,-100,0,0,100,0.00,40.00,4,-50,17,0.00
2013-4-12,45,39,32,-100,-100,-100,0,0,100,0.00,40.00,3,-79,10,0.00
2013-4-13,50,42,29,-100,-100,-100,0,0,100,0.00,40.00,9,-83,23,0.01
2013-4-14,50,42,36,-100,-100,-100,0,0,100,0.00,40.00,7,-87,25,0.00
2013-4-15,45,38,35,-100,-100,-100,0,0,100,0.00,40.00,8,-114,26,0.00
2013-4-16,37,32,26,-100,-100,-100,0,0,100,0.00,40.00,7,6,32,0.00
2013-4-17,28,24,20,-100,-100,-100,0,0,100,0.00,40.00,5,2,14,0.01
2013-4-18,36,24,13,-100,-100,-100,0,0,100,0.00,40.00,3,-295,16,0.00
2013-4-19,47,33,17,-100,-100,-100,0,0,100,44.89,40.00,4,-123,14,0.01
2013-4-20,47,41,36,-100,-100,-100,0,0,100,0.00,40.00,4,3,19,0.01
2013-4-21,53,43,29,-100,-100,-100,0,0,100,0.00,40.00,5,-85,15,0.00
2013-4-22,56,47,40,-100,-100,-100,0,0,100,0.00,40.00,5,-145,16,0.01
2013-4-23,48,43,38,-100,-100,-100,0,0,100,0.00,40.00,4,-53,16,0.00
2013-4-24,51,45,35,-100,-100,-100,0,0,100,0.00,40.00,3,-75,12,0.00
2013-4-25,44,40,35,-100,-100,-100,0,0,100,0.00,40.00,4,-105,20,0.00
2013-4-26,50,43,32,-100,-100,-100,0,0,100,44.89,40.00,2,-132,11,0.00
2013-4-27,55,41,31,-100,-100,-100,0,0,100,0.00,40.00,3,-177,9,0.00
2013-4-28,58,44,31,-100,-100,-100,0,0,100,0.00,40.00,2,-82,8,0.00
2013-4-29,62,50,36,-100,-100,-100,0,0,100,44.89,40.00,5,-38,18,0.00
2013-4-30,57,50,45,-100,-100,-100,0,0,100,0.00,40.00,7,-204,23,0.00
2013-5-1,54,45,30,-100,-100,-100,0,0,100,0.00,40.00,7,-69,20,0.00
2013-5-2,45,33,24,-100,-100,-100,0,0,100,0.00,40.00,3,-128,11,0.00
2013-5-3,55,42,26,-100,-100,-100,0,0,100,0.00,40.00,4,-24,11,0.00
2013-5-4,54,45,32,-100,-100,-100,0,0,100,0.00,40.00,4,-118,13,0.00
2013-5-5,47,41,35,-100,-100,-100,0,0,100,0.00,40.00,5,-127,18,0.00
2013-5-6,45,38,33,-100,-100,-100,0,0,100,44.89,40.00,5,-112,18,0.00
2013-5-7,43,36,29,-100,-100,-100,0,0,100,0.00,40.00,5,-170,22,0.01
2013-5-8,41,34,27,-100,-100,-100,0,0,100,44.89,40.00,4,-141,12,0.01
2013-5-9,43,31,30,-100,-100,-100,0,0,100,0.00,40.00,2,1,11,0.02
2013-5-10,50,38,27,-100,-100,-100,0,0,100,0.00,40.00,2,-199,8,0.01
2013-5-11,51,35,31,-100,-100,-100,0,0,100,0.00,40.00,3,-40,12,0.00
2013-5-12,58,44,32,-100,-100,-100,0,0,100,0.00,40.00,3,-42,13,0.00
2013-5-13,60,47,36,-100,-100,-100,0,0,100,0.00,40.00,3,2,8,0.00
2013-5-14,61,51,41,-100,-100,-100,0,0,100,44.89,40.00,4,-192,13,0.00
2013-5-15,58,51,46,-100,-100,-100,0,0,100,0.00,40.00,7,-31,18,0.00
2013-5-16,57,48,40,-100,-100,-100,0,0,100,44.89,40.00,5,3,15,0.00
2013-5-17,49,46,42,-100,-100,-100,0,0,100,0.00,40.00,6,-73,20,0.00
2013-5-18,50,44,37,-100,-100,-100,0,0,100,0.00,40.00,7,-164,16,0.00
2013-5-19,56,44,36,-100,-100,-100,0,0,100,44.89,40.00,4,-164,18,0.00
2013-5-20,50,41,33,-100,-100,-100,0,0,100,44.89,40.00,4,-284,13,0.00
2013-5-21,57,49,29,-100,-100,-100,0,0,100,44.89,40.00,4,-227,13,0.00
2013-5-22,57,50,44,-100,-100,-100,0,0,100,44.89,40.00,6,-44,21,1.19
2013-5-23,57,49,44,-100,-100,-100,0,0,100,44.89,40.00,7,-35,22,1.18
2013-5-24,57,49,41,-100,-100,-100,0,0,100,44.89,40.00,6,-122,16,0.00
2013-5-25,59,51,45,-100,-100,-100,0,0,100,44.89,40.00,6,5,17,0.00
2013-5-26,58,49,43,-100,-100,-100,0,0,100,44.89,40.00,5,-83,16,0.00
2013-5-27,59,49,41,-100,-100,-100,0,0,100,44.89,40.00,4,-37,14,0.00
2013-5-28,54,46,33,-100,-100,-100,0,0,100,44.89,40.00,5,-40,14,0.01
2013-5-29,56,48,40,-100,-100,-100,0,0,100,44.89,40.00,5,-115,22,0.00
2013-5-30,61,52,43,-100,-100,-100,0,0,100,44.89,40.00,5,-167,15,0.00
2013-5-31,64,54,42,-100,-100,-100,0,0,100,44.89,40.00,5,3,14,0.00
2013-6-1,64,50,34,-100,-100,-100,0,0,100,44.89,40.00,3,-90,8,0.00
2013-6-2,65,55,42,-100,-100,-100,0,0,100,44.89,40.00,4,-90,15,0.00
2013-6-3,64,55,42,-100,-100,-100,0,0,100,44.89,40.00,3,2,13,0.00
2013-6-4,65,56,45,-100,-100,-100,0,0,100,44.89,40.00,3,-81,12,0.00
2013-6-5,64,54,41,-100,-100,-100,0,0,100,44.89,40.00,3,-103,9,0.01
2013-6-6,65,55,42,-100,-100,-100,0,0,100,44.89,40.00,2,1,8,0.00
2013-6-7,71,56,43,-100,-100,-100,0,0,100,44.89,40.00,3,-101,12,0.00
2013-6-8,73,61,45,-100,-100,-100,0,0,100,44.89,40.00,4,-40,15,0.00
2013-6-9,73,63,50,-100,-100,-100,0,0,100,44.89,40.00,3,-40,9,0.00
2013-6-10,69,61,52,-100,-100,-100,0,0,100,44.89,40.00,5,-40,18,0.00
2013-6-11,69,60,51,-100,-100,-100,0,0,100,44.89,40.00,6,3,17,0.00
2013-6-12,71,63,57,-100,-100,-100,0,0,100,44.89,40.00,3,-24,15,0.00
2013-6-13,68,60,55,-100,-100,-100,0,0,100,44.89,40.00,4,-119,15,0.00
2013-6-14,67,58,53,-100,-100,-100,0,0,100,0.00,40.00,6,-36,14,0.00
2013-6-15,63,57,49,-100,-100,-100,0,0,100,44.89,40.00,5,-54,16,0.00
2013-6-16,64,56,44,-100,-100,-100,0,0,100,44.89,40.00,4,-137,12,0.00
2013-6-17,66,56,40,-100,-100,-100,0,0,100,44.89,40.00,3,-86,12,0.00
2013-6-18,66,57,42,-100,-100,-100,0,0,100,44.89,40.00,4,-122,12,0.00
2013-6-19,65,57,50,-100,-100,-100,0,0,100,44.89,40.00,5,-24,18,0.00
2013-6-20,62,54,50,-100,-100,-100,0,0,100,44.89,40.00,4,-52,15,0.00
2013-6-22,65,58,48,-100,-100,-100,0,0,100,0.00,40.00,4,2,11,0.00
2013-6-23,62,54,40,-100,-100,-100,0,0,100,0.00,40.00,4,3,15,0.00
2013-6-24,60,53,47,-100,-100,-100,0,0,100,0.00,40.00,6,-38,19,0.00
2013-6-25,67,55,48,-100,-100,-100,0,0,100,0.00,40.00,5,-98,12,0.00
2013-6-26,72,60,46,-100,-100,-100,0,0,100,44.89,40.00,3,-96,9,0.00
2013-6-27,73,62,47,-100,-100,-100,0,0,100,0.00,40.00,2,-106,8,0.00
2013-6-28,76,67,50,-100,-100,-100,0,0,100,44.89,40.00,3,-181,10,0.00
2013-6-29,74,66,55,-100,-100,-100,0,0,100,44.89,40.00,2,-249,8,0.00
2013-6-30,76,66,53,-100,-100,-100,0,0,100,44.89,40.00,3,-56,10,0.00
2013-7-1,74,64,54,-100,-100,-100,0,0,100,44.89,40.00,3,-215,10,0.00
2013-7-2,75,62,52,-100,-100,-100,0,0,100,44.89,40.00,3,-187,13,0.00
2013-7-3,74,64,60,-100,-100,-100,0,0,100,44.89,40.00,3,-207,15,0.00
2013-7-4,71,61,49,-100,-100,-100,0,0,100,44.89,40.00,3,-47,9,0.01
2013-7-5,67,59,50,-100,-100,-100,0,0,100,44.89,40.00,3,-98,8,0.01
2013-7-6,62,52,46,-100,-100,-100,0,0,100,44.89,40.00,2,-106,6,0.02
2013-7-7,68,58,45,-100,-100,-100,0,0,100,44.89,40.00,3,-22,10,0.02
2013-7-8,68,56,48,-100,-100,-100,0,0,100,44.89,40.00,1,-128,6,0.00
2013-7-9,72,61,51,-100,-100,-100,0,0,100,44.89,40.00,3,-150,9,0.00
2013-7-10,69,58,52,-100,-100,-100,0,0,100,44.89,40.00,2,-157,8,0.00
2013-7-11,63,56,50,-100,-100,-100,0,0,100,44.89,40.00,4,-31,15,0.00
2013-7-12,65,52,44,-100,-100,-100,0,0,100,44.89,40.00,3,-34,9,0.00
2013-7-13,60,53,43,-100,-100,-100,0,0,100,44.89,40.00,2,-332,6,0.02
2013-7-14,65,53,46,-100,-100,-100,0,0,100,44.89,40.00,2,-80,5,0.02
2013-7-15,61,54,48,-100,-100,-100,0,0,100,44.89,40.00,1,-128,6,0.02
2013-7-16,57,52,48,-100,-100,-100,0,0,100,44.89,40.00,1,-64,7,0.01
2013-7-17,62,53,45,-100,-100,-100,0,0,100,44.89,40.00,2,-155,7,0.01
2013-7-18,65,58,47,-100,-100,-100,0,0,100,0.00,40.00,2,-110,8,0.00
2013-7-19,64,54,50,-100,-100,-100,0,0,100,44.89,40.00,2,1,6,0.03
2013-7-20,63,55,48,-100,-100,-100,0,0,100,44.89,40.00,2,-63,8,0.05
2013-7-21,64,54,48,-100,-100,-100,0,0,100,44.89,40.00,2,-97,9,0.06
2013-7-22,58,52,47,-100,-100,-100,0,0,100,44.89,40.00,1,1,5,0.01
2013-7-23,59,52,46,-100,-100,-100,0,0,100,44.89,40.00,1,-41,5,0.01
2013-7-24,61,54,45,-100,-100,-100,0,0,100,44.89,40.00,1,-32,5,0.03
2013-7-25,63,56,51,-100,-100,-100,0,0,100,44.89,40.00,2,-68,8,0.02
2013-7-26,67,56,48,-100,-100,-100,0,0,100,44.89,40.00,2,-35,7,0.01
2013-7-27,63,52,47,-100,-100,-100,0,0,100,44.89,40.00,3,-65,9,0.02
2013-7-28,59,53,48,-100,-100,-100,0,0,100,44.89,40.00,4,3,13,0.05
2013-7-29,61,54,47,-100,-100,-100,0,0,100,44.89,40.00,3,-85,9,0.08
2013-7-30,67,55,42,-100,-100,-100,0,0,100,44.89,40.00,1,-41,7,0.00
2013-7-31,68,56,46,-100,-100,-100,0,0,100,44.89,40.00,2,-186,7,0.01
2013-8-1,64,56,48,-100,-100,-100,0,0,100,0.00,40.00,3,-94,10,0.01
2013-8-2,63,54,49,-100,-100,-100,0,0,100,44.89,40.00,2,-150,8,0.01
2013-8-3,62,53,45,-100,-100,-100,0,0,100,44.89,40.00,2,-85,8,0.01
2013-8-4,62,53,45,-100,-100,-100,0,0,100,44.89,40.00,1,-146,6,0.00
2013-8-5,62,52,45,-100,-100,-100,0,0,100,44.89,40.00,2,-178,7,0.01
2013-8-6,51,48,47,-100,-100,-100,0,0,100,44.89,40.00,3,-34,10,0.02
2013-8-7,58,51,45,-100,-100,-100,0,0,100,44.89,40.00,3,-62,13,0.01
2013-8-8,61,52,42,-100,-100,-100,0,0,100,0.00,40.00,2,-34,9,0.00
2013-8-9,62,52,41,-100,-100,-100,0,0,100,44.89,40.00,4,-63,13,0.00
2013-8-10,61,53,46,-100,-100,-100,0,0,100,0.00,40.00,4,-102,11,0.00
2013-8-11,60,50,43,-100,-100,-100,0,0,100,44.89,40.00,2,-178,8,0.01
2013-8-25,52,49,48,-100,-100,-100,0,0,100,0.00,40.00,3,0,10,0.02
2013-8-26,55,53,50,55,-42,-100,100,38,100,0.00,40.00,4,-122,13,0.07
2013-8-27,57,52,50,57,52,50,100,100,100,0.00,40.00,1,1,7,0.06
2013-8-28,60,54,47,60,54,47,100,100,100,0.00,40.00,2,-199,8,0.00
2013-8-29,61,52,44,61,52,44,100,100,100,0.00,40.00,2,-186,5,0.01
2013-8-30,58,53,49,58,53,49,100,100,100,0.00,40.00,1,-86,5,0.02
2013-8-31,53,47,46,53,43,-100,100,96,100,21.31,21.25,1,0,4,0.02
2013-9-1,62,52,44,62,52,44,100,100,99,0.00,40.00,2,1,8,0.02
2013-9-2,63,53,44,63,53,44,100,100,100,21.33,21.27,2,1,6,0.02
2013-9-3,65,52,44,62,39,-100,100,92,100,0.00,40.00,2,-230,6,0.02
2013-9-4,65,56,49,65,56,49,100,100,100,24.93,21.33,2,1,8,0.00
2013-9-5,62,54,45,62,54,45,100,100,100,0.00,40.00,2,1,7,0.00
2013-9-6,63,54,47,63,54,47,100,100,100,21.37,21.29,2,1,7,0.00
2013-9-12,54,45,38,54,45,38,100,100,100,0.00,40.00,1,1,5,0.00
2013-9-13,59,49,40,59,49,40,100,100,100,0.00,40.00,2,-71,6,0.00
2013-9-14,56,47,42,56,43,-100,100,96,100,0.00,40.00,2,2,9,0.00
2013-9-15,58,48,39,58,48,39,100,100,100,0.00,40.00,1,-166,5,0.00
2013-9-16,60,49,41,60,49,41,100,100,100,0.00,40.00,2,-70,7,0.00
2013-9-17,57,52,45,57,52,45,100,100,100,0.00,40.00,4,2,11,0.00
2013-9-18,52,50,48,52,50,48,100,100,100,21.04,21.01,3,2,11,0.00
2013-9-19,60,50,43,56,37,-100,100,92,100,0.00,40.00,3,-165,11,0.00
2013-9-20,58,50,41,57,30,-100,100,88,100,0.00,40.00,4,-123,13,0.00
2013-9-21,58,50,48,58,47,-100,100,97,100,0.00,40.00,5,3,18,0.00
2013-9-22,48,44,39,48,44,39,100,100,100,0.00,40.00,6,-65,22,0.00
2013-9-23,39,34,31,39,34,31,100,100,100,21.15,20.94,2,1,9,0.00
2013-9-24,47,38,33,47,38,33,100,100,100,0.00,40.00,3,2,9,0.01
2013-9-25,46,45,43,46,45,43,100,100,100,0.00,40.00,5,5,15,0.00
2013-9-26,47,43,36,47,43,36,100,100,100,0.00,40.00,7,-196,20,0.01
2013-9-27,38,32,27,38,32,27,100,100,100,21.07,20.80,5,2,14,0.01
2013-10-2,49,44,41,49,44,41,100,100,100,0.00,40.00,3,1,10,0.00
2013-10-3,49,44,40,49,44,40,100,100,100,0.00,40.00,6,5,18,0.00
2013-10-4,32,29,26,32,29,26,100,100,100,0.00,40.00,2,1,9,0.00
2013-10-5,37,30,20,33,-9,-100,100,71,100,0.00,40.00,1,-285,5,0.00
2013-10-7,33,33,33,33,33,33,100,100,100,0.00,40.00,1,1,2,0.00
2013-10-8,40,40,40,40,40,40,100,100,100,20.90,20.88,5,5,14,0.00
2013-10-9,41,38,35,41,38,35,100,100,100,0.00,40.00,7,6,20,0.00
2013-10-10,31,27,20,31,27,20,100,100,100,0.00,40.00,7,4,26,0.02
2013-10-11,42,30,20,42,30,20,100,100,100,0.00,40.00,2,1,5,0.01
2013-10-12,39,28,23,39,20,-100,100,92,100,0.00,40.00,3,1,11,0.00
2013-10-13,44,40,34,44,40,34,100,100,100,21.06,20.96,5,4,19,0.00
2013-11-12,34,32,28,34,17,-100,100,89,100,28.77,28.08,1,-111,2,0.00
2013-11-13,41,41,41,-100,-100,-100,0,0,100,0.00,40.00,0,-999,0,0.00
2013-11-14,37,34,32,37,34,32,100,100,100,27.96,27.82,6,4,14,0.00
2013-11-15,36,36,35,36,36,35,100,100,100,28.29,28.27,4,4,12,0.00
2013-11-16,36,28,30,36,13,-100,100,86,100,28.34,27.93,8,6,17,0.00
2013-11-17,40,40,40,40,40,40,100,100,100,28.50,28.50,1,1,4,0.00
2013-11-18,27,26,26,27,26,26,100,100,100,28.24,27.70,2,1,3,0.00
2013-11-19,44,40,35,44,40,35,100,100,100,28.19,27.58,4,2,12,0.00
2013-11-20,38,34,31,38,34,31,100,100,100,28.51,28.22,3,2,11,0.01
2013-11-21,34,32,31,34,32,31,100,100,100,28.35,28.17,4,4,15,0.02
2013-11-22,33,31,29,33,31,29,100,100,100,28.41,28.41,0,0,0,0.00
2013-11-23,30,26,21,30,22,-100,100,96,100,0.00,40.00,0,0,0,0.03
2013-11-24,26,23,20,26,23,20,100,100,100,20.99,20.92,0,0,0,0.01
2013-11-25,27,24,21,27,24,21,100,100,100,0.00,40.00,0,0,0,0.00
2013-11-26,33,23,16,33,23,16,100,100,100,0.00,40.00,1,1,5,0.00
2013-11-27,38,26,18,38,26,18,100,100,100,21.08,20.98,1,1,6,0.00
2013-11-28,36,25,18,36,25,18,100,100,100,0.00,40.00,3,-90,9,0.00
2013-11-29,34,29,26,34,29,26,100,100,100,0.00,40.00,2,2,7,0.00
2013-11-30,34,26,25,34,17,-100,100,92,100,22.52,40.00,1,-166,5,0.01
2013-12-1,42,27,23,42,27,23,100,100,100,0.00,40.00,1,1,5,0.00
2013-12-2,40,40,40,40,40,40,100,100,100,0.00,40.00,4,4,16,0.00
2013-12-3,35,31,27,35,31,27,100,100,100,0.00,40.00,6,-329,16,0.00
2013-12-4,28,24,18,28,24,18,100,100,100,20.64,20.57,7,5,23,0.04
2013-12-22,27,18,10,27,18,10,100,100,100,0.00,40.00,2,2,5,0.00
2013-12-23,33,24,14,33,24,14,100,100,100,0.00,40.00,1,-332,7,0.00
2013-12-24,31,25,22,23,-18,-100,100,67,100,0.00,40.00,1,-332,4,0.00
2013-12-25,14,14,14,14,14,14,100,100,100,0.00,40.00,1,1,3,0.00
2013-12-26,34,19,15,16,-31,-100,100,60,100,21.19,21.15,1,-399,3,0.00
2013-12-27,19,19,19,19,19,19,100,100,100,0.00,40.00,1,1,3,0.00
2013-12-29,24,16,8,24,16,8,100,100,100,0.00,40.00,1,0,6,0.00
2013-12-30,37,37,37,-100,-100,-100,0,0,100,0.00,40.00,0,-999,0,0.00
2013-12-31,33,30,24,33,-14,-100,100,67,100,0.00,40.00,1,-332,4,0.00
2014-1-1,35,32,25,35,32,25,100,100,100,21.13,21.09,3,-248,11,0.00
2014-1-2,20,19,19,20,19,19,100,100,100,0.00,40.00,2,1,3,0.00